Wind_Speed
27 27 28 26 24 23 22 19 18 20 18 19 20 22 20 18 16 13 14 17 27 34 33 33 29 22 21 18 22 22 23 26 27 25 27 30 37 41 40 39 33 41 32 40
32 31 29 28 28 28 25 22 21 22 20 21 21 21 20 20 18 15 15 17 24 31 32 33 34 30 25 22 21 22 25 26 32 36 34 39 48 50 50 41 39 48 45 48
35 33 33 32 32 32 30 28 24 22 21 23 23 22 20 22 24 20 16 17 25 29 32 33 34 34 31 22 22 26 27 31 35 42 40 38 41 54 58 48 45 41 54 49
38 37 35 33 35 37 35 32 29 24 22 21 22 22 24 23 22 23 23 22 22 29 36 38 39 38 34 33 31 35 37 42 40 45 45 42 42 54 59 59 58 57 50 64
42 41 40 38 38 37 36 36 31 30 29 26 27 25 24 24 23 24 23 23 24 25 30 35 39 39 41 45 47 48 45 47 37 43 45 43 44 56 64 64 65 66 67 64
45 45 43 40 39 40 41 39 37 35 35 35 33 31 29 29 27 27 25 24 25 25 26 31 34 34 36 40 39 36 38 38 39 39 48 47 52 58 63 63 66 68 67 68
45 49 46 45 42 41 38 38 36 34 35 35 34 34 33 36 37 33 31 29 28 29 30 33 34 36 36 38 41 42 44 45 45 44 49 50 55 60 63 63 69 74 76 78
47 48 48 48 47 44 41 40 40 37 36 37 37 37 39 41 38 40 40 39 37 36 36 37 37 40 41 44 46 50 52 52 54 56 54 53 58 68 66 69 70 76 81 82
50 53 50 48 49 51 50 47 46 43 42 45 45 46 47 47 45 43 45 48 49 48 44 44 43 45 49 48 52 56 63 66 66 66 63 60 68 75 72 74 75 76 82 86
55 51 52 53 50 50 51 51 51 51 50 53 54 55 55 55 54 52 50 47 51 56 55 53 52 50 53 55 58 62 65 66 67 70 69 64 72 74 75 77 79 84 91 93
57 56 54 52 54 53 54 56 56 53 49 52 54 57 59 58 57 54 52 52 54 57 56 56 59 56 60 62 67 69 69 69 70 73 77 75 79 80 84 83 87 93 90 95
59 57 60 60 57 56 57 62 61 61 57 56 56 56 62 60 61 62 62 61 62 60 62 64 63 64 67 68 67 75 74 80 79 85 83 85 86 88 90 97 99 99 102 102
66 63 62 63 62 61 61 62 64 67 64 61 62 64 70 69 65 64 68 69 74 70 71 72 73 75 77 79 77 77 77 85 87 90 88 90 91 95 100 103 105 104 107 111
73 70 69 68 69 70 69 69 71 72 71 70 65 68 71 73 74 73 73 73 77 79 82 82 79 79 80 81 85 87 91 95 100 93 93 97 99 104 106 108 108 110 113 117
80 79 79 77 75 76 78 79 79 80 82 78 76 73 76 81 83 83 82 81 83 86 86 85 85 86 93 86 84 86 96 102 104 102 101 105 100 107 114 114 116 119 124 126
85 84 81 82 82 84 87 86 83 86 88 90 84 83 82 84 87 90 93 92 91 95 95 92 92 95 101 97 88 91 106 108 110 110 111 112 113 115 118 123 126 128 130 135
85 85 86 86 86 89 90 89 85 89 93 96 94 89 86 87 93 97 101 104 104 105 104 101 104 105 110 106 99 110 117 117 117 120 122 122 123 126 128 131 132 134 139 142
92 90 90 92 92 93 93 92 91 93 97 99 101 92 89 92 97 101 104 107 109 110 109 105 107 106 112 108 112 114 116 121 121 123 126 131 133 134 138 138 138 137 136 134
100 99 97 97 96 97 97 100 101 103 104 106 105 103 104 105 105 107 109 107 107 112 110 108 116 108 111 116 117 117 120 122 126 127 130 129 130 129 130 129 126 124 120 121
107 108 108 108 106 105 103 102 106 109 108 111 115 114 116 112 111 109 112 111 112 114 106 111 114 113 121 124 127 129 126 127 128 127 124 126 127 123 116 114 116 111 112 108
112 112 113 115 113 113 114 115 113 114 115 113 113 115 118 117 114 117 119 120 125 126 120 127 126 124 130 132 131 130 125 120 120 122 123 117 110 104 103 99 97 97 99 97
119 118 117 117 119 120 122 122 121 118 117 116 118 117 118 120 123 125 126 128 133 135 133 131 133 136 135 131 128 122 121 121 119 115 109 105 102 98 94 90 88 87 88 87
127 128 128 128 128 126 120 120 122 126 128 127 126 126 124 125 128 134 136 135 131 128 126 128 128 133 127 120 118 118 113 107 101 97 98 97 92 89 89 87 86 85 85 83
126 125 126 127 126 125 127 130 132 134 131 132 132 132 133 137 137 132 130 130 131 132 131 128 133 127 115 114 111 108 102 97 95 93 90 87 84 85 84 84 85 85 84 83
134 135 131 126 128 133 136 140 140 135 134 134 133 130 125 126 126 126 125 123 120 120 121 122 121 115 111 109 104 99 93 93 90 90 88 85 84 84 84 84 83 81 81 79
132 131 130 134 137 139 138 128 126 129 127 123 122 120 117 117 117 115 114 115 111 115 112 107 106 103 102 103 103 99 94 92 90 88 87 87 85 83 82 80 79 78 76 75
103 106 111 113 115 117 117 114 113 114 116 116 114 111 112 108 103 106 107 109 106 104 103 101 100 99 97 100 100 95 91 89 89 88 86 85 84 81 79 77 75 74 72 71
Wind_Direction
223 222 226 231 238 250 258 261 265 274 272 277 286 289 289 298 299 285 287 252 230 226 235 251 258 257 274 287 297 306 313 316 315 305 298 299 301 300 305 312 319 318 332 331
227 230 232 239 243 249 251 254 258 269 266 272 280 287 290 298 293 286 281 255 241 231 244 246 249 257 268 278 287 301 304 308 310 309 305 309 311 311 308 308 314 312 326 322
228 231 236 241 245 246 247 249 257 263 264 268 275 276 285 292 299 292 281 270 245 246 249 252 254 260 269 269 271 297 297 303 304 306 304 301 304 308 304 305 309 313 311 316
232 234 238 243 248 248 249 251 250 255 265 271 269 275 276 283 289 291 294 287 271 261 256 260 264 269 271 273 272 286 296 296 298 298 296 296 299 299 300 301 304 307 310 313
233 239 246 248 251 253 253 257 251 254 262 268 274 274 277 279 283 284 288 288 292 282 273 272 273 277 279 280 284 289 289 285 283 292 294 293 297 300 302 304 306 310 313 315
243 242 242 244 246 251 253 258 260 260 260 260 268 271 274 277 277 280 279 283 281 285 287 287 286 286 286 288 288 288 289 286 283 286 292 295 299 299 300 303 304 303 304 306
238 245 243 246 247 248 250 256 257 260 262 262 267 266 269 274 272 269 268 273 278 280 283 285 287 290 292 295 299 298 293 289 290 289 290 294 295 293 293 294 299 301 305 306
243 248 249 251 246 246 243 245 251 257 263 263 265 266 268 272 276 268 264 269 275 276 276 277 280 282 284 287 290 290 288 289 290 291 289 291 292 292 291 293 297 299 299 301
246 249 251 253 252 253 250 248 249 255 261 263 266 270 269 273 271 273 274 273 272 273 275 277 278 281 283 286 289 290 292 294 292 292 293 293 295 294 293 294 296 297 297 298
245 248 253 253 254 255 256 257 258 260 264 266 269 270 272 274 274 275 278 282 279 277 277 281 283 284 286 286 291 290 288 287 287 289 292 293 292 294 294 294 292 292 296 300
244 246 248 253 258 257 258 257 259 262 264 273 273 273 273 276 275 277 275 279 281 278 279 282 282 285 284 287 286 287 288 285 284 286 290 292 293 292 291 292 299 301 302 303
244 247 248 249 254 257 260 263 265 265 264 265 267 271 274 277 278 277 281 280 280 283 282 284 284 285 288 289 292 291 292 289 290 291 293 295 297 299 299 298 300 301 302 303
245 247 250 252 252 254 258 260 264 264 265 265 268 270 272 278 276 279 279 280 280 282 283 285 287 289 286 290 291 290 290 290 291 288 289 293 297 296 297 299 300 300 300 302
244 248 250 253 255 256 256 258 261 263 263 263 265 267 274 277 280 280 279 278 279 280 281 286 289 289 289 290 291 293 293 291 289 291 292 293 295 295 296 297 298 297 299 300
245 247 247 249 253 256 258 259 261 264 265 264 263 264 271 272 275 279 281 281 281 283 284 287 289 291 289 291 293 296 292 289 291 294 292 292 293 294 296 297 297 298 299 299
248 248 251 252 254 257 259 258 261 264 266 267 267 267 267 273 277 278 278 280 281 283 284 287 290 290 289 292 293 291 286 289 291 292 291 292 293 292 292 294 295 296 296 298
247 250 251 251 255 259 261 262 262 265 268 270 269 269 269 271 273 276 279 281 282 282 284 286 287 287 287 290 293 285 290 289 290 292 293 293 294 295 295 295 295 296 296 298
246 248 250 253 254 257 260 263 264 265 267 268 270 272 273 273 272 272 274 276 278 280 281 284 285 287 288 291 288 290 291 292 293 294 295 296 295 294 293 294 295 295 297 298
248 250 250 252 254 259 262 262 263 266 265 267 270 274 276 277 275 274 277 282 281 280 282 286 285 288 291 290 290 292 291 292 292 290 293 297 297 297 298 299 300 300 300 300
250 250 252 254 255 258 260 263 266 266 266 269 272 272 276 276 277 279 284 283 286 290 289 288 290 292 292 291 293 293 294 296 293 292 294 296 297 297 299 301 301 301 300 300
249 251 253 254 254 256 259 264 267 269 270 271 272 273 274 278 281 283 285 286 287 288 289 288 290 292 291 290 292 295 296 297 296 297 298 298 299 302 302 300 300 300 300 301
250 251 254 256 258 260 261 264 268 271 271 270 272 275 277 279 280 282 283 285 287 288 287 288 290 290 289 292 294 296 296 296 297 298 300 302 302 301 300 301 301 300 300 301
256 256 255 256 260 261 265 269 270 270 270 272 274 275 276 276 278 280 281 284 285 287 290 290 289 287 289 293 295 295 296 296 297 299 301 300 299 299 298 299 299 300 301 302
257 258 260 260 262 264 267 268 269 271 271 272 273 274 276 276 278 279 281 282 284 287 288 288 286 289 293 295 295 296 298 301 302 301 299 297 297 297 298 298 298 298 300 301
257 259 261 262 264 267 267 268 270 271 270 271 274 273 274 275 277 278 281 283 285 284 283 284 288 292 293 293 294 297 300 300 299 297 296 296 297 297 298 298 299 301 302 303
256 258 260 262 261 263 263 265 266 268 271 272 272 272 273 275 277 278 281 281 281 280 283 286 287 291 292 294 296 297 298 297 295 294 295 297 299 299 299 300 300 302 303 304
256 257 259 259 261 262 264 266 269 270 270 272 273 275 276 277 278 279 278 278 280 282 284 287 290 290 291 290 290 292 292 293 293 295 297 299 299 300 300 300 301 303 303 304
Height
10651 10654 10657 10659 10662 10664 10666 10667 10668 10667 10667 10668 10668 10667 10666 10665 10664 10662 10661 10661 10663 10665 10666 10667 10668 10667 10666 10663 10661 10659 10656 10654 10650 10647 10644 10642 10637 10632 10629 10625 10623 10613 10612 10612
10645 10649 10652 10654 10657 10658 10660 10662 10662 10663 10663 10664 10663 10662 10661 10660 10659 10658 10657 10657 10658 10660 10661 10662 10662 10661 10660 10659 10656 10654 10651 10648 10644 10640 10637 10633 10625 10618 10615 10615 10613 10605 10599 10597
10638 10642 10645 10648 10650 10652 10654 10656 10657 10658 10658 10658 10658 10658 10656 10655 10655 10653 10653 10652 10653 10654 10655 10654 10654 10654 10653 10652 10650 10648 10645 10641 10636 10632 10627 10623 10620 10609 10599 10603 10602 10602 10588 10590
10630 10634 10637 10640 10643 10645 10646 10648 10651 10652 10652 10652 10652 10652 10652 10651 10650 10649 10648 10648 10648 10647 10647 10646 10647 10646 10646 10643 10641 10639 10637 10633 10628 10624 10619 10616 10612 10600 10591 10589 10586 10582 10587 10566
10621 10624 10628 10631 10635 10637 10639 10641 10643 10645 10646 10646 10646 10646 10645 10645 10645 10644 10643 10643 10641 10641 10641 10639 10639 10638 10637 10632 10632 10628 10627 10624 10620 10616 10609 10607 10603 10589 10578 10575 10568 10562 10557 10559
10612 10615 10619 10622 10625 10628 10630 10632 10635 10636 10637 10638 10639 10640 10640 10640 10639 10639 10639 10638 10637 10637 10635 10633 10631 10629 10627 10623 10621 10619 10616 10613 10611 10610 10599 10597 10593 10583 10570 10565 10557 10549 10548 10542
10601 10606 10610 10614 10618 10620 10622 10624 10626 10627 10629 10630 10631 10632 10633 10632 10632 10633 10632 10631 10630 10629 10628 10626 10624 10622 10619 10616 10611 10608 10605 10601 10598 10597 10589 10588 10579 10569 10561 10557 10547 10534 10527 10520
10593 10597 10601 10604 10608 10611 10612 10614 10617 10619 10620 10621 10621 10622 10622 10622 10623 10623 10624 10622 10621 10621 10620 10619 10617 10612 10611 10608 10605 10597 10591 10590 10586 10582 10580 10579 10570 10552 10552 10546 10542 10526 10513 10504
10583 10587 10591 10594 10597 10600 10603 10605 10607 10610 10611 10610 10613 10613 10612 10612 10612 10613 10614 10614 10612 10610 10609 10608 10607 10605 10600 10600 10595 10588 10579 10572 10569 10562 10562 10564 10548 10535 10536 10530 10525 10513 10498 10490
10573 10576 10580 10583 10586 10589 10591 10594 10597 10599 10601 10599 10601 10602 10601 10599 10600 10602 10602 10602 10599 10597 10598 10597 10596 10595 10589 10588 10583 10575 10568 10561 10555 10546 10544 10550 10533 10525 10519 10514 10506 10496 10485 10475
10560 10565 10568 10572 10575 10577 10580 10582 10584 10586 10591 10588 10588 10589 10586 10586 10587 10589 10588 10588 10585 10582 10582 10583 10580 10582 10578 10574 10566 10558 10553 10547 10544 10539 10527 10528 10519 10514 10502 10495 10492 10472 10468 10452
10546 10551 10555 10559 10561 10564 10567 10568 10569 10574 10577 10578 10577 10578 10568 10573 10572 10571 10573 10573 10568 10568 10567 10565 10566 10564 10562 10558 10560 10543 10539 10525 10525 10510 10512 10502 10498 10488 10481 10464 10462 10455 10440 10433
10532 10537 10540 10544 10547 10550 10552 10553 10553 10556 10561 10565 10566 10560 10554 10557 10555 10557 10557 10556 10549 10551 10548 10547 10548 10546 10542 10539 10542 10532 10527 10510 10504 10493 10496 10485 10479 10467 10455 10448 10436 10428 10416 10404
10517 10521 10525 10528 10530 10533 10535 10537 10535 10538 10542 10548 10556 10548 10541 10538 10538 10537 10539 10538 10533 10531 10525 10526 10528 10523 10524 10526 10519 10513 10499 10485 10469 10483 10480 10472 10461 10442 10432 10425 10414 10402 10392 10376
10500 10505 10508 10511 10513 10514 10516 10518 10521 10521 10519 10530 10535 10539 10533 10524 10523 10518 10517 10516 10513 10509 10509 10509 10509 10503 10487 10504 10508 10501 10471 10454 10449 10454 10455 10441 10450 10428 10407 10399 10389 10380 10365 10356
10484 10488 10493 10496 10497 10495 10495 10500 10511 10506 10501 10499 10515 10522 10524 10516 10507 10500 10492 10490 10491 10485 10486 10492 10493 10481 10462 10475 10492 10479 10437 10436 10433 10429 10424 10420 10413 10408 10395 10378 10367 10354 10339 10325
10466 10471 10474 10477 10477 10476 10474 10482 10494 10488 10481 10473 10483 10498 10510 10503 10493 10483 10475 10467 10465 10462 10465 10473 10469 10461 10441 10447 10458 10434 10416 10409 10407 10397 10387 10385 10378 10367 10359 10345 10335 10324 10308 10292
10448 10452 10455 10456 10457 10456 10459 10463 10469 10468 10461 10455 10451 10475 10483 10481 10472 10463 10459 10454 10447 10446 10445 10454 10441 10440 10425 10431 10413 10407 10401 10382 10374 10365 10354 10344 10341 10335 10322 10312 10300 10294 10277 10262
10427 10431 10433 10435 10437 10439 10441 10440 10442 10442 10440 10435 10438 10448 10449 10450 10444 10437 10431 10426 10426 10425 10434 10427 10402 10421 10410 10395 10387 10383 10372 10362 10353 10346 10330 10318 10306 10297 10288 10276 10267 10256 10245 10232
10405 10408 10410 10413 10418 10419 10419 10415 10415 10416 10420 10415 10417 10421 10416 10413 10411 10410 10405 10400 10400 10395 10408 10393 10388 10394 10379 10362 10360 10351 10347 10340 10327 10319 10309 10293 10284 10271 10262 10251 10239 10227 10216 10207
10382 10386 10387 10392 10395 10395 10395 10392 10397 10396 10395 10394 10392 10388 10385 10385 10383 10381 10375 10370 10366 10364 10377 10361 10358 10360 10343 10331 10330 10323 10315 10306 10292 10283 10273 10262 10253 10245 10235 10226 10215 10203 10191 10182
10358 10362 10365 10368 10370 10371 10370 10377 10376 10371 10362 10363 10360 10363 10363 10360 10355 10351 10348 10344 10335 10335 10335 10331 10329 10315 10302 10303 10299 10291 10284 10273 10262 10250 10243 10235 10224 10215 10207 10198 10191 10180 10169 10160
10330 10338 10341 10344 10343 10344 10350 10350 10342 10334 10332 10334 10337 10339 10339 10336 10330 10326 10322 10314 10306 10302 10300 10299 10293 10267 10273 10276 10273 10264 10249 10243 10238 10230 10219 10210 10203 10194 10185 10176 10166 10158 10148 10140
10302 10306 10311 10314 10319 10326 10322 10311 10306 10306 10307 10310 10310 10311 10313 10308 10300 10295 10292 10289 10287 10278 10269 10264 10241 10240 10247 10246 10238 10229 10221 10213 10208 10201 10195 10188 10179 10170 10162 10154 10143 10134 10127 10117
10273 10275 10281 10292 10296 10287 10282 10277 10275 10274 10276 10281 10283 10281 10280 10278 10274 10267 10263 10261 10264 10259 10243 10230 10222 10218 10219 10212 10207 10201 10197 10193 10187 10176 10169 10161 10154 10146 10138 10130 10121 10112 10104 10096
10244 10251 10259 10263 10258 10252 10247 10245 10247 10248 10249 10250 10248 10246 10248 10248 10245 10245 10243 10231 10229 10216 10209 10213 10207 10201 10195 10186 10176 10171 10171 10166 10160 10154 10146 10137 10130 10123 10115 10107 10099 10092 10085 10077
10222 10228 10225 10222 10220 10216 10216 10221 10221 10223 10220 10219 10216 10216 10217 10216 10220 10216 10210 10197 10197 10195 10192 10189 10182 10175 10172 10162 10152 10149 10146 10142 10136 10130 10122 10115 10106 10099 10092 10085 10079 10072 10065 10057